FW4597 Weather Reports


time (UTC)temp
C
wind
direction
speed
KPH
gust
KPH
rain 1hr
cm
rain 24hr
cm
rain mn
cm
humidity
%
barometer
mb
20260505025012 14 247 0.0 14.5 0.00 0.00 0.00 58 1008.3
20260505024506 14 201 0.0 14.5 0.00 0.00 0.00 57 1008.2
20260505023957 15 217 0.0 6.4 0.00 0.00 0.00 57 1008.2
20260505023710 15 223 0.0 12.9 0.00 0.00 0.00 56 1008.2
20260505023205 15 196 0.0 12.9 0.00 0.00 0.00 56 1008.2
20260505022435 15 216 0.0 6.4 0.00 0.00 0.00 56 1008.3
20260505021934 15 275 0.0 6.4 0.00 0.00 0.00 55 1008.3
20260505021427 15 238 0.0 9.7 0.00 0.00 0.00 55 1008.4
20260505020912 15 211 0.0 9.7 0.00 0.00 0.00 54 1008.3
20260505020626 15 219 0.0 3.2 0.00 0.00 0.00 54 1008.3
20260505015900 15 225 0.0 6.4 0.00 0.00 0.00 53 1008.3
20260505015346 15 270 0.0 3.2 0.00 0.00 0.00 53 1008.2
20260505014840 15 197 0.0 17.7 0.00 0.00 0.00 52 1008.2
20260505014334 15 190 0.0 17.7 0.00 0.00 0.00 52 1008.2
20260505013824 15 195 0.0 11.3 0.00 0.00 0.00 52 1008.1
20260505013318 16 238 0.0 11.3 0.00 0.00 0.00 52 1008.1
20260505012812 16 223 0.0 11.3 0.00 0.00 0.00 51 1008.0
20260505012259 16 251 0.0 9.7 0.00 0.00 0.00 51 1007.9
20260505011753 16 233 0.0 6.4 0.00 0.00 0.00 50 1007.8
20260505011244 16 242 0.0 4.8 0.00 0.00 0.00 50 1007.8
20260505010733 16 237 0.0 6.4 0.00 0.00 0.00 49 1007.6
20260505010228 16 188 0.0 12.9 0.00 0.00 0.00 49 1007.6
20260505005722 16 228 0.0 12.9 0.00 0.00 0.00 49 1007.4
20260505005207 16 222 0.0 14.5 0.00 0.00 0.00 49 1007.4
20260505004703 16 217 0.0 14.5 0.00 0.00 0.00 48 1007.3
20260505004420 17 261 0.0 3.2 0.00 0.00 0.00 48 1007.2
20260505003646 17 240 0.0 3.2 0.00 0.00 0.00 48 1007.0
20260505003145 17 208 0.0 3.2 0.00 0.00 0.00 48 1007.0
20260505002641 17 235 0.0 6.4 0.00 0.00 0.00 47 1006.8
20260505002144 17 249 0.0 6.4 0.00 0.00 0.00 47 1006.7
20260505001641 17 216 0.0 6.4 0.00 0.00 0.00 47 1006.6
20260505001145 17 232 0.0 16.1 0.00 0.00 0.00 46 1006.5
20260505000641 17 232 0.0 16.1 0.00 0.00 0.00 46 1006.4
20260505000408 17 236 0.0 11.3 0.00 0.00 0.00 45 1006.2
20260504235642 18 210 0.0 11.3 0.00 0.00 0.00 45 1006.0
20260504235142 18 211 0.0 20.9 0.00 0.00 0.00 45 1006.0
20260504234906 18 178 0.0 20.9 0.00 0.00 0.00 44 1005.9
20260504234142 18 222 0.0 6.4 0.00 0.00 0.00 44 1005.7
20260504233639 18 234 0.0 8.0 0.00 0.00 0.00 43 1005.7
20260504233143 18 150 0.0 14.5 0.00 0.00 0.00 43 1005.6
20260504232636 19 242 0.0 14.5 0.00 0.00 0.00 41 1005.6
20260504232124 19 250 0.0 12.9 0.00 0.00 0.00 41 1005.4
20260504231616 19 206 1.6 19.3 0.00 0.00 0.00 41 1005.4
20260504231111 19 226 1.6 19.3 0.00 0.00 0.00 40 1005.3
20260504230600 20 246 1.6 35.4 0.00 0.00 0.00 39 1005.2
20260504230107 20 243 1.6 35.4 0.00 0.00 0.00 39 1005.1
20260504225805 20 229 1.6 20.9 0.00 0.00 0.00 38 1005.0
20260504225038 20 176 1.6 20.9 0.00 0.00 0.00 37 1004.9
20260504224529 20 230 0.0 12.9 0.00 0.00 0.00 37 1004.8
20260504224027 21 226 0.0 12.9 0.00 0.00 0.00 36 1004.7
20260504223509 21 202 0.0 14.5 0.00 0.00 0.00 35 1004.7
20260504223004 21 292 0.0 14.5 0.00 0.00 0.00 34 1004.6
20260504221944 21 254 0.0 8.0 0.00 0.00 0.00 33 1004.6
20260504221438 21 231 0.0 8.0 0.00 0.00 0.00 33 1004.5
20260504220422 21 250 0.0 3.2 0.00 0.00 0.00 33 1004.6
20260504215915 21 182 0.0 11.3 0.00 0.00 0.00 33 1004.5
20260504215632 21 188 0.0 11.3 0.00 0.00 0.00 32 1004.6
20260504214856 21 216 0.0 4.8 0.00 0.00 0.00 33 1004.6
20260504214350 21 242 0.0 11.3 0.00 0.00 0.00 32 1004.7
20260504214112 21 244 0.0 11.3 0.00 0.00 0.00 31 1004.5
20260504213352 21 276 0.0 6.4 0.00 0.00 0.00 32 1004.6
20260504212850 21 313 0.0 4.8 0.00 0.00 0.00 31 1004.5
20260504212350 21 197 0.0 11.3 0.00 0.00 0.00 32 1004.6
20260504212134 21 256 0.0 16.1 0.00 0.00 0.00 32 1004.7
20260504211351 21 248 0.0 16.1 0.00 0.00 0.00 31 1004.4
20260504210852 22 240 0.0 4.8 0.00 0.00 0.00 31 1004.6
20260504210352 22 328 0.0 11.3 0.00 0.00 0.00 32 1004.6
20260504205855 22 292 0.0 11.3 0.00 0.00 0.00 32 1004.6
20260504205351 21 266 0.0 11.3 0.00 0.00 0.00 31 1004.6
20260504204854 21 191 0.0 11.3 0.00 0.00 0.00 30 1004.6
20260504204353 21 312 0.0 12.9 0.00 0.00 0.00 32 1004.6
20260504203852 21 236 0.0 12.9 0.00 0.00 0.00 31 1004.6
20260504203351 21 295 0.0 8.0 0.00 0.00 0.00 31 1004.6
20260504202851 21 198 0.0 14.5 0.00 0.00 0.00 31 1004.6
20260504202351 21 219 0.0 14.5 0.00 0.00 0.00 30 1004.6
20260504202110 21 355 0.0 16.1 0.00 0.00 0.00 31 1004.5
20260504201350 21 243 0.0 16.1 0.00 0.00 0.00 30 1004.8
20260504200851 22 291 0.0 6.4 0.00 0.00 0.00 29 1004.6
20260504200616 22 261 0.0 8.0 0.00 0.00 0.00 30 1004.8
20260504195851 22 176 0.0 9.7 0.00 0.00 0.00 29 1004.8
20260504195352 22 244 0.0 20.9 0.00 0.00 0.00 29 1004.8
20260504195103 22 240 0.0 20.9 0.00 0.00 0.00 28 1004.8
20260504194333 22 206 0.0 14.5 0.00 0.00 0.00 28 1004.9
20260504193833 22 265 0.0 14.5 0.00 0.00 0.00 28 1004.7
20260504193331 22 269 1.6 24.1 0.00 0.00 0.00 28 1004.8
20260504192830 22 228 1.6 24.1 0.00 0.00 0.00 29 1004.9
20260504192330 22 305 0.0 12.9 0.00 0.00 0.00 28 1004.7
20260504191830 22 270 0.0 11.3 0.00 0.00 0.00 29 1004.9
20260504191328 22 249 0.0 25.7 0.00 0.00 0.00 28 1004.8
20260504190832 22 211 1.6 25.7 0.00 0.00 0.00 29 1004.9
20260504190331 22 269 0.0 14.5 0.00 0.00 0.00 30 1004.9
20260504185829 22 317 1.6 14.5 0.00 0.00 0.00 28 1005.0
20260504185328 22 235 1.6 16.1 0.00 0.00 0.00 29 1005.1
20260504184829 22 232 0.0 16.1 0.00 0.00 0.00 28 1005.0
20260504184327 22 234 0.0 8.0 0.00 0.00 0.00 28 1005.1
20260504184042 22 238 0.0 14.5 0.00 0.00 0.00 29 1005.1
20260504183325 22 323 1.6 22.5 0.00 0.00 0.00 29 1005.3
20260504183055 21 176 1.6 30.6 0.00 0.00 0.00 28 1005.3
20260504182325 21 242 1.6 30.6 0.00 0.00 0.00 29 1005.3
20260504181825 22 171 1.6 19.3 0.00 0.00 0.00 30 1005.4
20260504181324 22 183 0.0 14.5 0.00 0.00 0.00 29 1005.3
20260504180841 21 255 1.6 22.5 0.00 0.00 0.00 30 1005.2
20260504180326 21 240 1.6 22.5 0.00 0.00 0.00 31 1005.3
20260504175827 21 237 1.6 27.4 0.00 0.00 0.00 31 1005.5
20260504175324 21 251 1.6 27.4 0.00 0.00 0.00 32 1005.3
20260504174824 21 220 1.6 17.7 0.00 0.00 0.00 31 1005.3
20260504174324 21 146 1.6 17.7 0.00 0.00 0.00 32 1005.4
20260504173824 21 327 1.6 19.3 0.00 0.00 0.00 31 1005.7
20260504173610 21 236 1.6 19.3 0.00 0.00 0.00 31 1005.7
20260504172821 21 230 0.0 19.3 0.00 0.00 0.00 30 1005.6
20260504172321 21 330 0.0 19.3 0.00 0.00 0.00 32 1005.8
20260504171822 21 345 3.2 30.6 0.00 0.00 0.00 33 1005.8
20260504170820 21 345 1.6 24.1 0.00 0.00 0.00 30 1005.7
20260504170329 21 222 1.6 24.1 0.00 0.00 0.00 30 1005.8
20260504160309 20 198 1.6 25.7 0.00 0.00 0.00 34 1006.4
20260504151149 18 294 1.6 22.5 0.00 0.00 0.00 36 1006.9
20260504150643 18 257 0.0 16.1 0.00 0.00 0.00 35 1007.0
20260504150144 18 309 0.0 16.1 0.00 0.00 0.00 34 1007.0
20260504141137 17 214 0.0 1.6 0.00 0.00 0.00 41 1007.4
20260504140638 16 329 0.0 6.4 0.00 0.00 0.00 42 1007.4
20260504140131 16 307 0.0 16.1 0.00 0.00 0.00 41 1007.5
20260504130505 13 261 0.0 9.7 0.00 0.00 0.00 47 1008.3
20260504110658 8 237 0.0 17.7 0.00 0.00 0.00 58 1008.4
20260504110153 8 228 0.0 17.7 0.00 0.00 0.00 58 1008.4
20260504081950 7 226 0.0 0.0 0.00 0.00 0.00 60 1008.3
20260504081224 7 226 0.0 0.0 0.00 0.00 0.00 59 1008.3
20260504080719 7 226 0.0 0.0 0.00 0.00 0.00 59 1008.3
20260504080208 7 226 0.0 0.0 0.00 0.00 0.00 59 1008.2
20260504070131 7 214 0.0 0.0 0.00 0.00 0.00 60 1008.2
20260504060108 6 230 0.0 0.0 0.00 0.00 0.00 61 1008.2
20260504045555 5 224 0.0 0.0 0.00 0.00 0.00 60 1008.3
20260504045054 5 224 0.0 0.0 0.00 0.00 0.00 60 1008.3
20260504044553 5 224 0.0 0.0 0.00 0.00 0.00 60 1008.3
20260504044057 5 224 0.0 0.0 0.00 0.00 0.00 61 1008.3
20260504043557 5 224 0.0 0.0 0.00 0.00 0.00 61 1008.3
20260504043056 5 224 0.0 0.0 0.00 0.00 0.00 61 1008.3
20260504042556 5 225 0.0 0.0 0.00 0.00 0.00 61 1008.2
20260504042100 5 223 0.0 0.0 0.00 0.00 0.00 61 1008.2
20260504041556 5 229 0.0 0.0 0.00 0.00 0.00 61 1008.2
20260504041321 5 217 0.0 0.0 0.00 0.00 0.00 61 1008.2
20260504040556 6 217 0.0 0.0 0.00 0.00 0.00 61 1008.1
20260504040107 6 212 0.0 0.0 0.00 0.00 0.00 61 1008.1
20260504035549 6 226 0.0 0.0 0.00 0.00 0.00 61 1008.0
20260504034546 6 225 0.0 0.0 0.00 0.00 0.00 59 1007.9
20260504034046 6 224 0.0 0.0 0.00 0.00 0.00 59 1007.9
20260504033543 6 224 0.0 0.0 0.00 0.00 0.00 58 1007.9
20260504033042 6 224 0.0 0.0 0.00 0.00 0.00 58 1007.8
20260504032540 6 224 0.0 0.0 0.00 0.00 0.00 58 1007.9
20260504032307 6 224 0.0 0.0 0.00 0.00 0.00 57 1007.9
20260504031538 6 224 0.0 0.0 0.00 0.00 0.00 57 1007.9
20260504031038 6 224 0.0 0.0 0.00 0.00 0.00 57 1007.9
20260504030801 6 224 0.0 0.0 0.00 0.00 0.00 57 1007.9
20260504030030 6 224 0.0 0.0 0.00 0.00 0.00 57 1007.9
20260504025523 6 224 0.0 0.0 0.00 0.00 0.00 56 1007.8